Weather reports worldwide

Advertisment
Navalmoral de la Mata, Spain (8254): temperature & dewpoint: 08.11.2018 13:00:00 - 14.11.2018 13:00:00 (CET)Navalmoral de la Mata, Spain (8254): wind speed & gusts: 08.11.2018 13:00:00 - 14.11.2018 13:00:00 (CET)Navalmoral de la Mata, Spain (8254): wind direction: 08.11.2018 13:00:00 - 14.11.2018 13:00:00 (CET)Navalmoral de la Mata, Spain (8254): reduced air pressure: 08.11.2018 13:00:00 - 14.11.2018 13:00:00 (CET)Navalmoral de la Mata, Spain (8254): visibility: 08.11.2018 13:00:00 - 14.11.2018 13:00:00 (CET)Navalmoral de la Mata, Spain (8254): sunshine duration: 08.11.2018 13:00:00 - 14.11.2018 13:00:00 (CET)Navalmoral de la Mata, Spain (8254): precipitation: 08.11.2018 13:00:00 - 14.11.2018 13:00:00 (CET)
Date & Time tt [°C] td [°C] ff [km/h] ff [kn] fx [km/h] fx [kn] dd ppp [hPa] vv [km] sd [min] rr [mm]
14.11.2018 13:00:00 - - - - - - - - - - -
14.11.2018 12:00:00 17,9 10,5 18 10 40 22 ESE 1020,9 20 53 0,0
14.11.2018 11:00:00 16,5 11,4 13 7 22 12 SE 1021,7 20 60 0,0
14.11.2018 10:00:00 14,6 11,0 10 5 21 11 ESE 1022,1 20 60 0,0
14.11.2018 09:00:00 11,1 9,6 6 3 16 9 SSE 1022,4 14 14 0,0
14.11.2018 08:00:00 10,8 9,0 7 4 14 8 S 1022,2 14 0 0,0
14.11.2018 07:00:00 11,5 9,0 3 2 13 7 ESE 1022,2 13 0 -
14.11.2018 06:00:00 11,8 9,3 10 5 16 9 E 1022,3 20 0 0,0
14.11.2018 05:00:00 11,7 9,4 8 5 17 9 SE 1022,4 18 0 0,0
14.11.2018 04:00:00 12,1 9,7 10 5 22 12 SSE 1022,6 20 0 0,0
14.11.2018 03:00:00 12,2 9,9 10 5 20 11 SE 1022,7 20 0 0,0
14.11.2018 02:00:00 12,5 10,0 9 5 18 10 SE 1023,0 20 0 0,0
14.11.2018 01:00:00 12,8 10,2 9 5 18 10 ESE 1023,5 20 0 -
14.11.2018 00:00:00 13,0 10,5 10 5 17 9 E 1023,4 20 0 0,0
13.11.2018 23:00:00 12,5 10,8 8 4 14 8 NE 1023,7 10 0 0,0
13.11.2018 22:00:00 13,0 10,9 6 4 16 9 ENE 1023,4 12 0 0,0
13.11.2018 21:00:00 12,4 10,4 4 2 9 5 ESE 1023,2 7 0 0,0
13.11.2018 20:00:00 13,9 11,4 7 4 11 6 NE 1022,9 17 0 0,0
13.11.2018 19:00:00 14,5 11,4 7 4 10 5 ENE 1022,4 20 0 -
13.11.2018 18:00:00 17,1 12,0 3 1 17 9 SE 1021,6 20 48 0,0
13.11.2018 17:00:00 18,4 11,9 10 5 21 12 ESE 1021,4 20 60 0,0
13.11.2018 16:00:00 18,7 12,0 11 6 26 14 SE 1021,3 20 60 0,0
13.11.2018 15:00:00 18,3 12,1 13 7 27 15 ESE 1021,5 20 60 0,0
13.11.2018 14:00:00 17,5 12,0 14 8 36 19 ESE 1022,2 20 60 0,0
13.11.2018 13:00:00 16,4 11,8 16 9 32 17 ESE 1022,9 20 38 -
13.11.2018 12:00:00 16,1 11,7 17 9 29 16 ESE 1023,6 20 46 0,0
13.11.2018 11:00:00 14,7 11,4 11 6 19 11 ESE 1023,7 13 60 0,0
13.11.2018 10:00:00 12,4 10,3 11 6 19 10 E 1023,8 20 60 0,0
13.11.2018 09:00:00 10,2 9,3 6 3 11 6 E 1023,4 13 18 0,0
13.11.2018 08:00:00 9,2 8,1 7 4 10 5 NNE 1022,9 4,6 0 0,0
13.11.2018 07:00:00 10,0 8,9 5 3 8 5 SSE 1022,2 8 0 -
13.11.2018 06:00:00 10,6 9,3 4 2 6 3 SSE 1021,7 1,0 0 0,0
13.11.2018 05:00:00 11,5 10,4 2 1 10 5 E 1021,4 20 0 0,0
13.11.2018 04:00:00 11,4 10,3 4 2 8 4 NE 1021,5 17 0 0,0
13.11.2018 03:00:00 11,6 10,6 5 3 8 4 ENE 1021,3 14 0 0,0
13.11.2018 02:00:00 11,3 10,4 3 2 10 5 E 1020,9 9 0 0,0
13.11.2018 01:00:00 11,4 10,4 6 3 9 5 NNE 1020,7 8 0 -
13.11.2018 00:00:00 11,5 10,4 4 2 8 5 SE 1020,3 10 0 0,0
12.11.2018 23:00:00 11,8 10,6 5 3 9 5 ENE 1020,0 4,2 0 0,0
12.11.2018 22:00:00 12,6 11,3 6 3 8 5 NNE 1019,6 17 0 0,0
12.11.2018 21:00:00 13,0 11,6 5 3 8 5 E 1019,2 20 0 0,2
12.11.2018 20:00:00 13,2 11,4 4 2 8 5 ENE 1018,4 20 0 0,0
12.11.2018 19:00:00 13,4 11,4 5 3 13 7 ENE 1017,8 20 0 -
12.11.2018 18:00:00 13,9 11,4 6 4 16 9 E 1016,9 20 0 0,0
12.11.2018 17:00:00 14,2 11,9 8 4 17 9 ENE 1016,4 20 0 0,0
12.11.2018 16:00:00 14,2 12,1 9 5 16 9 E 1015,9 20 0 0,0
12.11.2018 15:00:00 13,9 12,3 10 5 23 13 ENE 1015,5 18 0 0,2
12.11.2018 14:00:00 14,3 12,3 9 5 17 9 ENE 1015,5 20 0 0,0
12.11.2018 13:00:00 13,5 12,2 7 4 18 10 ENE 1015,5 20 0 -
12.11.2018 12:00:00 12,8 11,7 7 4 18 10 ENE 1015,8 20 0 0,2
12.11.2018 11:00:00 12,3 11,2 10 6 19 11 E 1015,0 10 0 0,4
12.11.2018 10:00:00 12,0 11,1 9 5 16 9 E 1014,7 20 0 0,4
12.11.2018 09:00:00 11,9 11,0 8 4 14 8 E 1014,3 6 0 0,6
12.11.2018 08:00:00 11,8 10,9 6 3 11 6 E 1013,5 10 0 1,4
12.11.2018 07:00:00 11,7 10,8 6 4 14 7 ENE 1012,8 3,0 0 -
12.11.2018 06:00:00 11,6 10,6 5 3 13 7 NNE 1012,5 12 0 1,0
12.11.2018 05:00:00 11,6 10,6 7 4 12 6 NE 1012,1 4,5 0 0,8
12.11.2018 04:00:00 11,7 10,6 5 3 16 9 ENE 1012,4 4,4 0 1,6
12.11.2018 03:00:00 11,7 10,6 7 4 14 8 NE 1011,8 14 0 0,0
12.11.2018 02:00:00 11,6 10,5 6 3 18 10 ENE 1011,6 20 0 0,2
12.11.2018 01:00:00 11,5 10,4 10 5 19 10 ENE 1011,1 9 0 -
12.11.2018 00:00:00 11,7 10,6 5 3 8 5 NE 1012,0 10 0 0,8
11.11.2018 23:00:00 11,6 10,3 4 2 22 12 SSW 1011,8 20 0 0,4
11.11.2018 22:00:00 11,7 10,2 14 8 32 17 WSW 1011,6 10 0 0,2
11.11.2018 21:00:00 13,2 10,9 18 10 55 30 W 1011,0 20 0 2,0
11.11.2018 20:00:00 15,9 11,7 7 4 14 8 SE 1009,3 20 0 0,0
11.11.2018 19:00:00 15,6 12,3 8 4 14 8 ESE 1009,4 20 0 -
11.11.2018 18:00:00 15,8 13,0 5 3 13 7 ESE 1009,3 20 0 0,0
11.11.2018 17:00:00 16,3 13,4 5 3 13 7 E 1009,8 20 0 0,0
11.11.2018 16:00:00 16,9 13,3 6 4 16 9 ENE 1010,3 20 0 0,0
11.11.2018 15:00:00 17,0 13,2 11 6 19 10 ENE 1010,6 20 1 0,0
11.11.2018 14:00:00 17,0 13,8 8 4 16 9 E 1011,6 20 0 0,0
11.11.2018 13:00:00 16,5 13,5 10 5 17 9 E 1012,8 20 0 -
11.11.2018 12:00:00 - - - - - - - - - - -
11.11.2018 11:00:00 - - - - - - - - - - -
11.11.2018 10:00:00 - - - - - - - - - - -
11.11.2018 09:00:00 - - - - - - - - - - -
11.11.2018 08:00:00 - - - - - - - - - - -
11.11.2018 07:00:00 - - - - - - - - - - -
11.11.2018 06:00:00 - - - - - - - - - - -
11.11.2018 05:00:00 - - - - - - - - - - -
11.11.2018 04:00:00 - - - - - - - - - - -
11.11.2018 03:00:00 - - - - - - - - - - -
11.11.2018 02:00:00 - - - - - - - - - - -
11.11.2018 01:00:00 - - - - - - - - - - -
11.11.2018 00:00:00 - - - - - - - - - - -
10.11.2018 23:00:00 - - - - - - - - - - -
10.11.2018 22:00:00 - - - - - - - - - - -
10.11.2018 21:00:00 - - - - - - - - - - -
10.11.2018 20:00:00 - - - - - - - - - - -
10.11.2018 19:00:00 - - - - - - - - - - -
10.11.2018 18:00:00 - - - - - - - - - - -
10.11.2018 17:00:00 - - - - - - - - - - -
10.11.2018 16:00:00 - - - - - - - - - - -
10.11.2018 15:00:00 - - - - - - - - - - -
10.11.2018 14:00:00 - - - - - - - - - - -
10.11.2018 13:00:00 - - - - - - - - - - -
10.11.2018 12:00:00 - - - - - - - - - - -
10.11.2018 11:00:00 - - - - - - - - - - -
10.11.2018 10:00:00 - - - - - - - - - - -
10.11.2018 09:00:00 - - - - - - - - - - -
10.11.2018 08:00:00 - - - - - - - - - - -
10.11.2018 07:00:00 - - - - - - - - - - -
10.11.2018 06:00:00 - - - - - - - - - - -
10.11.2018 05:00:00 - - - - - - - - - - -
10.11.2018 04:00:00 - - - - - - - - - - -
10.11.2018 03:00:00 - - - - - - - - - - -
10.11.2018 02:00:00 - - - - - - - - - - -
10.11.2018 01:00:00 - - - - - - - - - - -
10.11.2018 00:00:00 - - - - - - - - - - -
09.11.2018 23:00:00 - - - - - - - - - - -
09.11.2018 22:00:00 - - - - - - - - - - -
09.11.2018 21:00:00 - - - - - - - - - - -
09.11.2018 20:00:00 - - - - - - - - - - -
09.11.2018 19:00:00 - - - - - - - - - - -
09.11.2018 18:00:00 - - - - - - - - - - -
09.11.2018 17:00:00 - - - - - - - - - - -
09.11.2018 16:00:00 - - - - - - - - - - -
09.11.2018 15:00:00 - - - - - - - - - - -
09.11.2018 14:00:00 - - - - - - - - - - -
09.11.2018 13:00:00 - - - - - - - - - - -
09.11.2018 12:00:00 - - - - - - - - - - -
09.11.2018 11:00:00 - - - - - - - - - - -
09.11.2018 10:00:00 - - - - - - - - - - -
09.11.2018 09:00:00 8,7 5,0 18 10 37 20 W 1021,4 20 45 0,0
09.11.2018 08:00:00 7,4 4,3 14 8 32 18 W 1020,8 20 0 0,0
09.11.2018 07:00:00 7,7 4,3 13 7 41 22 WSW 1020,1 20 0 -
09.11.2018 06:00:00 8,0 4,6 21 11 41 22 W 1019,7 20 0 0,0
09.11.2018 05:00:00 7,9 4,8 20 11 46 25 W 1019,2 20 0 0,0
09.11.2018 04:00:00 8,0 5,0 24 13 43 23 W 1018,7 20 0 0,0
09.11.2018 03:00:00 8,0 5,1 23 13 40 22 W 1018,5 20 0 0,2
09.11.2018 02:00:00 8,2 5,6 16 9 29 16 WSW 1018,4 20 0 0,0
09.11.2018 01:00:00 8,3 6,1 14 8 32 17 W 1018,1 20 0 -
09.11.2018 00:00:00 8,6 6,8 13 7 28 15 WSW 1017,8 20 0 0,0
08.11.2018 23:00:00 9,0 7,1 12 6 29 15 W 1017,6 20 0 0,0
08.11.2018 22:00:00 9,6 7,6 19 10 32 17 WSW 1016,7 20 0 0,0
08.11.2018 21:00:00 9,7 7,4 15 8 26 14 WSW 1015,7 20 0 0,0
08.11.2018 20:00:00 10,4 8,7 5 3 29 16 NW 1015,1 20 0 0,2
08.11.2018 19:00:00 10,6 8,9 11 6 18 10 WSW 1014,7 20 0 -
08.11.2018 18:00:00 11,3 9,7 3 2 43 23 SSE 1013,8 20 0 0,8
08.11.2018 17:00:00 11,8 10,5 6 3 13 7 E 1013,1 13 0 0,8
08.11.2018 16:00:00 11,9 10,6 8 4 14 8 NE 1013,5 7 0 1,2
08.11.2018 15:00:00 12,5 11,1 6 4 11 6 E 1013,7 5 0 0,8
08.11.2018 14:00:00 12,6 10,9 4 2 14 8 E 1014,8 15 0 1,6
08.11.2018 13:00:00 12,9 9,6 8 4 18 10 E 1015,6 6 0 -

tt = temperature
td = dewpoint
ff = wind speed
fx = gusts
dd = wind direction
ppp = reduced air pressure
vv = visibility
sd = sunshine duration
rr = precipitation

Next stations